When you browse on this site, cookies collect data to enhance your experience and personalize the content and advertising you see.
Visit our Privacy Policy to learn more. By continuing to use the site, you agree to this use of cookies and data.
  • In Hungary
  • List of Countries
  • For 7 days
  • Water Temperature
  • Satellite Maps
  • Weather Map
  • News
  • Weather Widgets
  • user-avatar
    Login

    Hourly Weather Bihać

    Today, 21 April, Sunday

    Time Temperature Precipitation Wind Pressure Humidity
    00:00 +7°C° 0 mm 2 mps 715 mmHg 62%
    01:00 +7°C° 0 mm 2 mps 715 mmHg 57%
    02:00 +7°C° 0 mm 2 mps 714 mmHg 57%
    03:00 +6°C° 0 mm 2 mps 714 mmHg 56%
    04:00 +6°C° 0 mm 2 mps 714 mmHg 56%
    05:00 +8°C° 0 mm 1 mps 714 mmHg 54%
    06:00 +10°C° 0 mm 1 mps 714 mmHg 53%
    07:00 +11°C° 0 mm 1 mps 714 mmHg 52%
    08:00 +13°C° 0 mm 1 mps 714 mmHg 45%
    09:00 +16°C° 0 mm 1 mps 715 mmHg 39%
    10:00 +19°C° 0 mm 1 mps 715 mmHg 33%
    11:00 +20°C° 0 mm 1 mps 715 mmHg 33%
    12:00 +20°C° 0 mm 1 mps 715 mmHg 34%
    13:00 +21°C° 0 mm 1 mps 714 mmHg 34%
    14:00 +19°C° 0 mm 2 mps 714 mmHg 39%
    15:00 +19°C° 0 mm 2 mps 714 mmHg 43%
    16:00 +18°C° 0 mm 2 mps 713 mmHg 48%
    17:00 +16°C° 0 mm 2 mps 713 mmHg 60%
    18:00 +14°C° 0 mm 2 mps 712 mmHg 72%
    19:00 +12°C° 0 mm 1 mps 712 mmHg 84%
    20:00 +11°C° 0 mm 1 mps 712 mmHg 87%
    21:00 +11°C° 0 mm 1 mps 712 mmHg 89%
    22:00 +10°C° 0 mm 1 mps 712 mmHg 91%
    23:00 +10°C° 0 mm 1 mps 712 mmHg 90%

    Tomorrow, 22 April, Monday

    Time Temperature Precipitation Wind Pressure Humidity
    00:00 +10°C° 0 mm 1 mps 711 mmHg 89%
    01:00 +10°C° 0 mm 1 mps 711 mmHg 88%
    02:00 +8°C° 0 mm 2 mps 711 mmHg 89%
    03:00 +8°C° 0 mm 2 mps 710 mmHg 90%
    04:00 +7°C° 0 mm 2 mps 710 mmHg 91%
    05:00 +8°C° 0 mm 2 mps 710 mmHg 86%
    06:00 +9°C° 0 mm 3 mps 710 mmHg 81%
    07:00 +10°C° 0 mm 3 mps 710 mmHg 77%
    08:00 +12°C° 0 mm 3 mps 710 mmHg 70%
    09:00 +13°C° 0 mm 4 mps 709 mmHg 63%
    10:00 +15°C° 0 mm 4 mps 709 mmHg 56%
    11:00 +17°C° 0 mm 4 mps 709 mmHg 55%
    12:00 +16°C° 0 mm 5 mps 708 mmHg 54%
    13:00 +17°C° 0 mm 5 mps 708 mmHg 53%
    14:00 +16°C° 0 mm 5 mps 707 mmHg 55%
    15:00 +16°C° 0 mm 5 mps 707 mmHg 57%
    16:00 +16°C° 0 mm 6 mps 706 mmHg 58%
    17:00 +14°C° 0 mm 5 mps 706 mmHg 64%
    18:00 +13°C° 0 mm 5 mps 705 mmHg 69%
    19:00 +11°C° 0 mm 4 mps 705 mmHg 75%
    20:00 +11°C° 0.1 mm 4 mps 705 mmHg 78%
    21:00 +9°C° 0.1 mm 5 mps 705 mmHg 82%
    22:00 +9°C° 0.1 mm 5 mps 705 mmHg 86%
    23:00 +9°C° 2.4 mm 5 mps 704 mmHg 88%

    Day after tomorrow, 23 April, Tuesday

    Time Temperature Precipitation Wind Pressure Humidity
    00:00 +9°C° 2.4 mm 6 mps 703 mmHg 90%
    01:00 +9°C° 2.4 mm 6 mps 703 mmHg 91%
    02:00 +9°C° 0.2 mm 6 mps 703 mmHg 91%
    03:00 +9°C° 0.2 mm 7 mps 702 mmHg 92%
    04:00 +10°C° 0.2 mm 7 mps 702 mmHg 92%
    05:00 +10°C° 0 mm 7 mps 702 mmHg 91%
    06:00 +10°C° 0 mm 7 mps 702 mmHg 90%
    07:00 +10°C° 0 mm 6 mps 702 mmHg 89%
    08:00 +11°C° 0.1 mm 7 mps 702 mmHg 88%
    09:00 +11°C° 0.1 mm 7 mps 702 mmHg 88%
    10:00 +12°C° 0.1 mm 7 mps 702 mmHg 87%
    11:00 +13°C° 0.6 mm 6 mps 702 mmHg 88%
    12:00 +13°C° 0.6 mm 6 mps 703 mmHg 88%
    13:00 +13°C° 0.6 mm 6 mps 703 mmHg 89%
    14:00 +13°C° 1.2 mm 6 mps 703 mmHg 87%
    15:00 +14°C° 1.2 mm 6 mps 703 mmHg 85%
    16:00 +14°C° 1.2 mm 6 mps 703 mmHg 82%
    17:00 +14°C° 1.9 mm 6 mps 703 mmHg 85%
    18:00 +13°C° 1.9 mm 5 mps 703 mmHg 87%
    19:00 +12°C° 1.9 mm 4 mps 703 mmHg 89%
    20:00 +12°C° 0.6 mm 4 mps 704 mmHg 91%
    21:00 +11°C° 0.6 mm 3 mps 704 mmHg 93%
    22:00 +11°C° 0.6 mm 3 mps 705 mmHg 95%
    23:00 +11°C° 0.3 mm 3 mps 706 mmHg 95%

    24 April, Wednesday

    Time Temperature Precipitation Wind Pressure Humidity
    00:00 +11°C° 0.3 mm 3 mps 706 mmHg 96%
    01:00 +11°C° 0.3 mm 3 mps 706 mmHg 96%
    02:00 +11°C° 0.2 mm 4 mps 707 mmHg 96%
    03:00 +11°C° 0.2 mm 4 mps 707 mmHg 97%
    04:00 +11°C° 0.2 mm 4 mps 707 mmHg 97%
    05:00 +12°C° 0.3 mm 4 mps 707 mmHg 96%
    06:00 +12°C° 0.3 mm 4 mps 708 mmHg 95%
    07:00 +12°C° 0.3 mm 4 mps 708 mmHg 94%
    08:00 +13°C° 0.3 mm 4 mps 709 mmHg 93%
    09:00 +13°C° 0.3 mm 4 mps 710 mmHg 92%
    10:00 +13°C° 0.3 mm 4 mps 710 mmHg 91%
    11:00 +14°C° 0.2 mm 4 mps 710 mmHg 89%
    12:00 +14°C° 0.2 mm 4 mps 711 mmHg 87%
    13:00 +15°C° 0.2 mm 4 mps 711 mmHg 85%
    14:00 +15°C° 0 mm 4 mps 711 mmHg 81%
    15:00 +17°C° 0 mm 4 mps 711 mmHg 78%
    16:00 +18°C° 0 mm 4 mps 711 mmHg 75%
    17:00 +15°C° 0 mm 4 mps 711 mmHg 80%
    18:00 +14°C° 0 mm 3 mps 711 mmHg 85%
    19:00 +13°C° 0 mm 3 mps 711 mmHg 89%
    20:00 +12°C° 0 mm 3 mps 711 mmHg 88%
    21:00 +12°C° 0 mm 3 mps 711 mmHg 86%
    22:00 +11°C° 0 mm 3 mps 712 mmHg 84%
    23:00 +11°C° 0 mm 3 mps 712 mmHg 83%

    25 April, Thursday

    Time Temperature Precipitation Wind Pressure Humidity
    00:00 +11°C° 0 mm 3 mps 712 mmHg 81%
    01:00 +11°C° 0 mm 3 mps 712 mmHg 79%
    02:00 +11°C° 0 mm 3 mps 712 mmHg 81%
    03:00 +11°C° 0 mm 3 mps 712 mmHg 82%
    04:00 +11°C° 0 mm 3 mps 711 mmHg 83%
    05:00 +12°C° 0 mm 3 mps 712 mmHg 81%
    06:00 +13°C° 0 mm 3 mps 712 mmHg 79%
    07:00 +14°C° 0 mm 3 mps 713 mmHg 76%
    08:00 +16°C° 0 mm 3 mps 713 mmHg 73%
    09:00 +18°C° 0 mm 4 mps 713 mmHg 69%
    10:00 +19°C° 0 mm 4 mps 713 mmHg 66%
    11:00 +20°C° 0 mm 4 mps 713 mmHg 64%
    12:00 +20°C° 0 mm 4 mps 713 mmHg 62%
    13:00 +21°C° 0 mm 4 mps 713 mmHg 60%
    14:00 +21°C° 0 mm 4 mps 713 mmHg 60%
    15:00 +21°C° 0 mm 4 mps 712 mmHg 60%
    16:00 +21°C° 0 mm 4 mps 712 mmHg 61%
    17:00 +19°C° 0 mm 3 mps 712 mmHg 68%
    18:00 +17°C° 0 mm 3 mps 711 mmHg 74%
    19:00 +16°C° 0 mm 2 mps 711 mmHg 81%
    20:00 +15°C° 0 mm 2 mps 711 mmHg 82%
    21:00 +14°C° 0 mm 2 mps 711 mmHg 83%
    22:00 +14°C° 0 mm 2 mps 711 mmHg 84%
    23:00 +13°C° 0 mm 2 mps 711 mmHg 81%

    26 April, Friday

    Time Temperature Precipitation Wind Pressure Humidity
    00:00 +13°C° 0 mm 2 mps 711 mmHg 79%
    01:00 +13°C° 0 mm 2 mps 710 mmHg 76%
    02:00 +12°C° 0 mm 2 mps 710 mmHg 76%
    03:00 +12°C° 0 mm 2 mps 710 mmHg 75%
    04:00 +12°C° 0 mm 2 mps 710 mmHg 75%
    05:00 +12°C° 0 mm 3 mps 710 mmHg 75%
    06:00 +13°C° 0 mm 3 mps 710 mmHg 75%
    07:00 +14°C° 0 mm 3 mps 710 mmHg 75%
    08:00 +15°C° 0 mm 4 mps 711 mmHg 73%
    09:00 +17°C° 0 mm 4 mps 711 mmHg 71%
    10:00 +19°C° 0 mm 4 mps 711 mmHg 69%
    11:00 +19°C° 0.1 mm 4 mps 711 mmHg 68%
    12:00 +20°C° 0.1 mm 4 mps 711 mmHg 67%
    13:00 +21°C° 0.1 mm 4 mps 710 mmHg 66%
    14:00 +20°C° 0.3 mm 4 mps 710 mmHg 70%
    15:00 +19°C° 0.3 mm 3 mps 709 mmHg 73%
    16:00 +19°C° 0.3 mm 3 mps 709 mmHg 77%
    17:00 +17°C° 0.6 mm 3 mps 709 mmHg 82%
    18:00 +16°C° 0.6 mm 2 mps 708 mmHg 88%
    19:00 +14°C° 0.6 mm 2 mps 708 mmHg 94%
    20:00 +14°C° 0.6 mm 2 mps 708 mmHg 94%
    21:00 +13°C° 0.6 mm 2 mps 708 mmHg 95%
    22:00 +13°C° 0.6 mm 2 mps 709 mmHg 95%
    23:00 +13°C° 0.3 mm 1 mps 709 mmHg 95%
    Show more